Kuchera_Ratio
9.0 7.2 7.0 8.4 8.0 6.2 6.4 4.2 11.2 7.0 6.4 6.4 4.0 3.6 2.6 1.0 2.0 4.6 6.6 5.7 4.0 2.7 2.5 1.5 0.0 0.0 0.0 0.0 0.0 0.0 0.0 0.0 0.0 0.0 0.0 0.0 0.0 0.0 0.0 0.0 0.0 0.0 0.0 0.0
12.9 7.2 6.2 9.0 4.8 3.2 2.8 2.2 3.4 2.6 6.8 2.6 1.8 1.2 4.8 5.8 6.0 8.4 9.2 8.0 6.7 6.1 6.0 4.9 2.5 1.4 0.0 0.0 0.0 0.0 0.0 0.0 0.0 0.0 0.0 0.0 0.0 0.0 0.0 0.0 0.0 0.0 0.0 0.0
17.2 10.4 9.8 15.1 8.0 2.2 4.6 4.8 3.4 8.8 5.6 3.0 7.2 9.2 10.2 9.0 9.2 11.2 10.8 9.8 9.2 9.1 8.6 8.2 5.8 4.3 2.3 0.9 0.0 0.0 0.0 0.0 0.0 0.0 0.0 0.0 0.0 0.0 0.0 0.0 0.0 0.0 0.0 0.0
16.0 13.0 18.5 7.6 0.0 0.0 6.0 6.8 5.6 5.2 5.0 5.2 9.4 9.8 9.8 8.8 10.8 12.0 12.0 11.4 10.6 9.8 9.2 8.4 7.6 6.8 5.3 3.5 2.8 2.1 0.0 0.0 0.0 0.0 0.0 0.0 0.0 0.0 0.0 0.0 0.0 0.0 0.0 0.0
16.3 15.7 12.4 10.4 6.4 7.6 7.4 11.2 5.8 6.2 5.6 6.4 8.2 7.8 11.8 8.2 9.2 11.4 11.6 11.0 10.8 9.6 9.0 8.0 8.2 7.8 7.4 7.8 5.7 6.0 3.4 2.3 1.0 0.0 0.0 0.0 0.0 0.0 0.0 0.0 0.0 0.0 0.0 0.0
14.4 16.4 17.1 12.1 7.6 0.2 0.8 13.4 6.0 7.2 10.4 5.4 7.0 12.3 14.3 10.0 8.8 9.8 10.2 10.4 10.8 9.4 9.4 10.0 9.4 8.8 10.3 10.0 9.3 8.2 7.9 6.6 5.7 4.3 3.9 2.4 0.8 0.6 0.0 0.0 0.0 0.0 0.0 0.0
14.8 15.2 12.2 8.6 4.8 0.0 12.4 13.6 7.8 9.0 10.6 11.0 12.8 12.3 11.2 9.4 10.2 9.8 10.2 10.2 10.2 10.8 10.8 10.8 10.2 9.8 11.2 12.2 12.1 12.1 10.6 9.7 8.7 7.1 7.7 7.1 7.4 7.9 5.8 4.5 4.0 4.3 3.5 1.6
13.4 14.7 16.0 6.2 4.0 10.2 8.0 6.6 7.4 9.0 9.8 12.4 13.1 13.3 13.3 12.3 12.5 11.8 12.2 12.2 11.5 12.4 12.6 10.8 9.8 11.2 12.0 12.5 12.4 12.1 12.1 11.8 11.5 10.3 10.2 9.4 8.7 8.7 9.2 9.0 9.0 9.7 10.1 8.9
12.1 14.1 8.8 6.8 8.4 5.0 3.8 7.4 8.6 8.6 10.0 11.8 12.9 14.1 13.2 12.8 12.3 12.5 13.1 13.0 12.5 12.7 12.6 12.0 10.0 10.0 12.6 12.6 12.4 12.8 12.9 12.4 12.6 12.3 12.1 12.3 11.7 12.0 11.1 11.5 11.1 10.6 10.0 10.6
9.8 10.6 9.0 7.6 7.2 7.0 6.2 8.4 7.8 7.8 9.8 10.8 13.2 13.4 13.4 13.1 13.0 13.0 13.1 13.5 12.6 12.9 13.2 13.1 11.8 10.6 9.6 9.4 11.2 12.8 13.2 13.3 13.3 13.0 13.1 12.9 12.8 12.9 13.0 13.1 12.7 12.7 13.0 12.7
12.0 9.6 8.6 8.0 7.4 8.0 8.6 8.2 9.2 10.2 12.0 13.2 13.1 13.8 13.7 13.8 13.7 13.6 13.4 13.1 13.1 13.7 13.8 13.8 12.6 12.3 11.2 9.2 8.6 11.8 12.4 13.2 13.8 13.7 13.8 13.9 13.7 13.7 13.6 13.7 14.0 13.9 13.9 14.0
14.5 9.8 9.8 11.2 9.0 7.4 10.0 11.4 11.6 12.5 13.5 13.7 13.7 14.4 14.2 14.4 14.2 14.0 14.3 13.9 14.3 14.1 14.3 14.6 14.1 14.0 13.4 12.0 10.8 11.2 12.0 12.8 13.7 14.5 14.8 14.4 14.4 14.2 11.4 11.6 11.8 12.0 12.2 13.0
12.3 8.4 9.6 9.0 8.2 8.4 11.4 12.0 12.2 13.0 13.5 14.1 13.6 13.3 13.4 14.5 14.5 13.7 15.0 15.0 15.1 15.2 14.8 14.6 15.0 15.5 15.0 13.8 13.5 13.9 14.5 14.0 13.5 14.4 15.0 14.8 14.8 14.9 15.3 14.5 10.8 10.6 10.2 9.6
5.4 7.4 11.6 10.4 12.3 9.6 9.8 10.0 8.8 9.8 11.0 12.4 13.2 13.2 13.9 14.5 14.3 14.9 15.4 15.2 14.9 15.1 15.3 15.1 15.3 16.3 15.9 14.6 13.8 14.1 14.1 13.9 14.4 15.0 15.4 15.7 15.8 16.0 16.1 16.2 16.5 16.3 15.1 12.6
10.0 8.4 9.2 8.4 8.2 9.6 8.8 10.6 12.8 13.4 13.6 14.4 14.1 14.8 15.0 16.0 16.6 16.2 15.4 14.9 15.1 16.1 16.7 16.7 16.8 16.7 15.7 14.9 14.3 14.0 13.9 14.1 14.2 14.4 15.0 16.0 15.9 16.6 17.0 17.1 17.2 17.4 17.5 17.2
8.4 8.6 10.4 12.8 12.1 11.8 12.6 13.1 14.4 15.3 15.3 16.4 16.6 16.5 16.3 16.5 16.8 17.1 16.9 16.7 17.8 17.3 17.5 17.5 17.5 17.5 16.4 14.6 14.5 14.4 14.7 14.6 14.6 14.9 15.4 16.3 17.2 18.0 18.1 18.3 18.3 18.1 18.3 18.8
11.2 12.2 12.2 12.7 12.9 13.4 13.5 13.3 13.5 14.4 14.2 14.4 14.9 14.6 15.2 16.3 17.3 17.7 17.8 17.8 17.6 17.6 17.8 18.0 18.2 17.4 16.1 15.4 15.1 15.1 15.0 15.4 15.6 15.6 16.0 16.5 17.3 18.5 19.4 19.5 19.5 19.6 19.7 20.0
9.8 9.6 10.0 11.4 13.3 14.0 14.5 14.2 14.1 14.6 16.0 16.5 17.9 17.9 17.8 17.7 17.6 17.8 18.1 17.9 17.8 17.9 18.1 18.2 18.4 17.8 17.3 16.7 16.3 15.8 15.9 16.2 16.6 17.2 17.1 17.3 18.0 18.3 18.8 19.1 19.7 20.4 20.6 20.8
12.5 12.9 13.0 13.1 13.4 14.2 15.1 16.4 17.6 17.8 18.3 18.2 17.9 17.8 17.8 17.9 17.9 17.9 17.9 18.0 18.0 18.3 18.7 19.2 17.4 18.5 18.4 18.1 17.6 17.1 17.1 17.4 17.6 18.1 18.1 18.3 18.5 18.8 19.1 19.2 19.6 20.3 20.3 20.7
15.5 15.0 15.2 16.2 16.2 16.8 17.5 18.0 18.1 18.1 18.1 18.0 17.7 17.7 17.8 17.7 17.7 17.7 17.9 18.1 18.4 19.3 19.6 19.6 19.3 19.5 19.5 19.2 18.7 18.3 18.2 18.3 18.8 18.9 18.9 19.3 19.3 19.4 19.5 19.6 20.0 20.4 20.8 21.1
17.6 17.8 17.5 17.6 17.7 18.1 18.1 18.2 18.3 18.0 17.9 18.3 18.4 18.6 18.6 18.8 19.1 19.5 19.9 20.0 19.5 19.8 19.7 20.1 20.1 20.5 20.4 20.1 19.7 19.4 19.6 19.8 20.0 20.2 20.3 20.5 20.3 20.4 20.2 20.4 20.7 20.9 21.3 21.7
18.1 18.1 18.1 18.1 18.0 18.1 18.5 18.5 18.5 18.3 18.4 18.7 19.0 19.3 19.4 19.9 20.2 20.2 19.5 19.9 19.7 20.0 19.9 20.0 20.4 21.2 21.2 20.9 20.6 20.3 20.5 20.6 20.7 20.8 20.9 21.0 21.3 21.5 21.6 21.6 21.7 21.9 21.9 22.1
18.1 18.6 18.7 18.6 18.5 18.3 18.6 18.8 18.8 18.9 19.0 19.0 18.9 18.9 18.6 18.5 18.4 20.2 20.4 19.3 19.6 19.9 20.4 20.4 20.7 21.2 21.5 21.3 21.0 21.0 21.2 21.0 21.1 21.3 21.4 21.6 22.0 22.2 22.2 22.1 22.1 22.3 22.4 22.6
17.6 18.2 18.7 18.9 18.8 18.9 18.9 19.0 18.9 18.8 18.4 18.5 18.4 17.8 17.8 18.4 18.6 18.3 18.3 18.8 19.7 20.3 20.6 20.8 20.8 21.0 21.4 21.3 21.3 21.3 21.3 21.4 21.6 21.6 22.0 21.9 22.0 22.2 22.3 22.3 22.4 22.6 22.9 23.1
17.2 17.5 17.7 18.3 17.3 17.6 16.5 16.7 17.2 17.1 17.9 17.2 17.1 16.9 17.4 17.8 17.1 17.7 18.7 19.1 19.6 19.9 20.1 20.4 20.6 20.9 20.9 21.1 21.3 21.4 21.4 21.5 21.6 21.7 21.9 22.1 22.2 22.6 22.7 22.7 22.8 22.9 23.0 23.2
15.3 15.8 15.8 14.8 15.2 15.5 15.6 15.9 17.8 17.3 17.2 18.1 18.1 17.5 17.3 17.4 17.7 18.0 18.5 18.9 19.1 19.5 19.8 19.8 20.1 20.4 20.8 21.0 21.1 21.3 21.6 21.5 21.6 21.8 21.9 22.1 22.3 22.4 22.7 22.9 23.0 23.2 23.6 23.8
14.7 14.2 15.6 16.3 16.0 15.8 16.1 17.1 17.5 18.2 17.8 17.4 18.3 17.7 18.0 18.1 18.3 18.4 18.8 19.2 19.5 19.8 20.1 20.1 20.3 20.6 20.8 20.9 20.9 21.1 21.2 21.4 21.6 21.7 21.9 22.1 22.3 22.6 22.9 23.2 23.5 23.7 23.3 23.3